SES-6

Last updated on Wed Sep 17 2025 00:02:48 GMT+0000 (Coordinated Universal Time)

1 39172U 13026A 25259.43293135 -.00000280 00000+0 00000+0 0 9996 2 39172 0.0534 299.9427 0002201 241.4673 289.5561 1.00270652 44984
UTC large
Height (km)
Speed (km/s)
/
Latitude / Longitude
Inclination (degrees)
Orbital Period (minutes)
Azimuth
Elevation
Range (km)
Doppler Factor

Next 0 passes for location: London (51.5072 / 0.1276)

Sorry there are no passes over London.